Free Trial

This company has been marked as potentially delisted and may not be actively trading.

BlackRock New York Municipal Income Trust (BNY) Institutional Ownership

BlackRock New York Municipal Income Trust logo

Institutional Ownership Changes (13F Filings) for BlackRock New York Municipal Income Trust (NYSE:BNY)

Number of
Institutional Buyers
(last 12 months)
33
Total
Institutional Inflows
(last 12 months)
$12.31M
Number of
Institutional Sellers
(last 12 months)
12
Total
Institutional Outflows
(last 12 months)
$1.68M
Get BNY Insider Trade Alerts

Want to know when executives and insiders are buying or selling BlackRock New York Municipal Income Trust stock? Sign up for InsiderTrades.com's daily newsletter to get the latest insider transactions delivered to your inbox daily.

SMS is currently available in Australia, Belgium, Canada, France, Germany, Ireland, Italy, New Zealand, the Netherlands, Singapore, South Africa, Spain, Switzerland, the United Kingdom, and the United States. By entering your phone number and clicking the sign-up button, you agree to receive periodic text messages from MarketBeat at the phone number you submitted, including texts that may be sent using an automatic telephone dialing system. Message and data rates may apply. Message frequency will vary. Messages will consist of stock alerts, news stories, and partner advertisements/offers. Consent is not a condition of the purchase of any goods or services. Text HELP for help/customer support. Unsubscribe at any time by replying "STOP" to any text message that you receive from MarketBeat or by visiting our mailing preferences page. Read our full terms of service and privacy policy.
Skip Chart & View Institutional Buying and Selling Data

BNY Institutional Buying and Selling by Quarter

BlackRock New York Municipal Income Trust Major Shareholders & Ownership History

Reporting DateMajor Shareholder NameShares HeldMarket Value% of PortfolioQuarterly Change in SharesOwnership in CompanyDetails
3/17/2026Rockefeller Capital Management L.P.179,595$1.82M0.0%+12.5%0.000%
2/25/2026Sit Investment Associates Inc.174,950$1.77M0.0%N/A0.000%
2/18/2026Rivernorth Capital Management LLC866,666$8.79M0.4%+109.3%0.000%
2/18/2026 Evolve Private Wealth LLC15,014$152K0.0%N/A0.000%
2/17/2026Guggenheim Capital LLC482,357$4.89M0.0%+10.4%0.000%
2/17/2026Cetera Investment Advisers145,175$1.47M0.0%+1.3%0.000%
2/17/2026Osaic Holdings Inc.17,446$177K0.0%-30.6%0.000%
2/17/2026Royal Bank of Canada34,360$348K0.0%+27.0%0.000%
2/13/2026Wells Fargo & Company MN95,286$966K0.0%+16.8%0.000%
2/12/2026Jane Street Group LLC13,684$139K0.0%+21.5%0.000%
2/12/2026 Commonwealth Equity Services LLC43,218$438K0.0%+42.1%0.000%
2/11/2026Wellspring Financial Advisors LLC27,300$277K0.0%+82.0%0.000%
2/11/2026Fiera Capital Corp260,122$2.64M0.0%-10.5%0.000%
2/9/2026Blue Bell Private Wealth Management LLC42,653$433K0.1%-5.6%0.000%
2/6/2026Quantify Chaos Advisors LLC34,068$345K1.0%N/A0.000%
2/5/2026Elyxium Wealth LLC3,052$31K0.0%N/A0.000%
2/3/2026 Indivisible Partners17,000$172K0.0%N/A0.000%
2/2/2026 Oppenheimer & Co. Inc.22,055$224K0.0%-10.9%0.000%
1/29/2026 Focused Wealth Management Inc114,884$1.17M0.1%+2.0%0.000%
1/29/2026 NBC Securities Inc.2,500$25K0.0%N/A0.000%
1/27/2026 Legacy Advisors LLC24,900$252K0.0%N/A0.000%
1/14/2026Hennion & Walsh Asset Management Inc.183,176$1.86M0.1%-2.0%0.000%
1/13/2026Dakota Wealth Management22,300$226K0.0%+102.7%0.000%
1/5/2026 Noble Wealth Management PBC5,254$53K0.0%+162.7%0.000%
11/17/2025Whitebox Advisors LLC145,147$1.47M0.0%-4.8%0.000%
11/17/2025City of London Investment Management Co. Ltd.53,221$539K0.0%N/A0.000%
11/17/2025Bank of America Corp DE234,752$2.38M0.0%+1.1%0.000%
11/17/2025Ameriprise Financial Inc.59,013$597K0.0%+6.8%0.000%
11/14/2025Raymond James Financial Inc.22,078$223K0.0%-8.6%0.000%
11/13/2025 UBS Group AG96,370$975K0.0%-22.1%0.000%
11/13/2025 Private Advisor Group LLC11,600$117K0.0%N/A0.000%
11/13/2025Modern Wealth Management LLC77,088$780K0.0%+11.3%0.000%
11/10/2025Bridgewater Advisors Inc.31,690$323K0.0%-21.5%0.000%
11/7/2025Fiera Capital Corp290,722$2.94M0.0%-0.4%0.000%
11/5/2025 Envestnet Asset Management Inc.37,960$384K0.0%+5.6%0.000%
10/22/2025Hennion & Walsh Asset Management Inc.186,897$1.89M0.1%+9.6%0.000%
10/22/2025Blue Bell Private Wealth Management LLC45,199$457K0.1%-4.7%0.000%
10/10/2025 Focused Wealth Management Inc112,650$1.14M0.1%+1.6%0.000%
9/4/2025Osaic Holdings Inc.34,363$332K0.0%-22.1%0.000%
8/27/2025Orion Porfolio Solutions LLC18,244$176K0.0%N/A0.000%
8/15/2025Orion Porfolio Solutions LLC18,244$176K0.0%N/A0.000%
8/15/2025Modern Wealth Management LLC69,255$670K0.0%+15.2%0.000%
8/15/2025Bank of America Corp DE232,240$2.25M0.0%-1.8%0.000%
8/15/2025Ameriprise Financial Inc.55,246$534K0.0%+9.5%0.000%
8/14/2025Karpus Management Inc.609,718$5.90M0.2%+5.1%0.000%
8/13/2025Guggenheim Capital LLC393,370$3.80M0.0%+13.3%0.000%
8/11/2025 Traub Capital Management LLC7,468$72K0.1%N/A0.000%
8/8/2025Rockefeller Capital Management L.P.147,095$1.42M0.0%+7.3%0.000%
8/8/2025Cetera Investment Advisers128,268$1.24M0.0%+17.6%0.000%
8/8/2025Fiera Capital Corp292,008$2.82M0.0%-0.6%0.000%
8/5/2025Bridgewater Advisors Inc.40,370$379K0.0%N/A0.000%
8/1/2025 Envestnet Asset Management Inc.35,946$348K0.0%+46.6%0.000%
7/25/2025 Ackerman Capital Advisors LLC13,235$128K0.0%N/A0.000%
7/18/2025 PFG Investments LLC11,437$111K0.0%N/A0.000%
6/2/2025Modern Wealth Management LLC60,134$612K0.0%-18.7%0.000%
5/16/2025Plancorp LLC32,122$327K0.0%N/A0.000%
5/16/2025AQR Arbitrage LLC41,662$424K0.0%-49.6%0.000%
5/7/2025Fiera Capital Corp293,832$2.99M0.0%-6.2%0.000%
5/6/2025Cetera Investment Advisers109,048$1.11M0.0%+5.1%0.000%
5/5/2025Blue Bell Private Wealth Management LLC51,823$527K0.1%-4.6%0.000%
5/1/2025Focused Wealth Management Inc111,453$1.13M0.2%+1.0%0.000%
4/29/2025Mackay Shields LLC218,559$2.22M0.1%+34.8%0.000%
4/10/2025Hennion & Walsh Asset Management Inc.146,299$1.49M0.1%-28.8%0.000%
2/17/2025Saba Capital Management L.P.2,182,287$22.24M0.5%-0.6%0.000%
2/17/2025Logan Stone Capital LLC173,489$1.77M0.6%-26.4%0.000%
2/17/2025Cetera Investment Advisers103,766$1.06M0.0%-5.9%0.000%
2/17/2025Baird Financial Group Inc.71,943$733K0.0%+7.6%0.000%
2/17/2025Bank of America Corp DE265,300$2.70M0.0%-15.5%0.000%
2/17/2025Ameriprise Financial Inc.51,287$523K0.0%+16.4%0.000%
2/17/2025Almitas Capital LLC28,553$291K0.1%+27.7%0.000%
2/14/2025AQR Arbitrage LLC82,740$843K0.0%-39.0%0.000%
2/14/2025Whitebox Advisors LLC155,471$1.58M0.0%+88.4%0.000%
2/13/2025Guggenheim Capital LLC353,802$3.61M0.0%+2.1%0.000%
2/13/2025Rockefeller Capital Management L.P.137,095$1.40M0.0%+152.0%0.000%
2/13/2025Raymond James Financial Inc.25,435$259K0.0%N/A0.000%
2/13/2025Envestnet Asset Management Inc.14,799$151K0.0%+24.1%0.000%
2/13/2025Wells Fargo & Company MN14,087$144K0.0%-44.6%0.000%
2/11/2025Modern Wealth Management LLC64,001$673K0.0%+12.6%0.000%
2/11/2025LPL Financial LLC58,648$598K0.0%+16.7%0.000%
2/10/2025Commonwealth Equity Services LLC21,086$215K0.0%-15.4%0.000%
2/6/2025Raymond James Financial Inc.25,435$259K0.0%N/A0.000%
2/3/2025Wolverine Asset Management LLC68,505$698K0.0%+58.5%0.000%
1/31/2025Robinson Capital Management LLC55,829$569K0.2%-3.6%0.000%
1/31/2025Sanctuary Advisors LLC14,813$154K0.0%-9.7%0.000%
1/29/2025Summit Trail Advisors LLC14,350$146K0.0%N/A0.000%
1/28/2025Focused Wealth Management Inc110,393$1.13M0.2%-6.8%0.000%
1/17/2025Dakota Wealth Management11,000$112K0.0%N/A0.000%
1/15/2025Hennion & Walsh Asset Management Inc.205,383$2.09M0.1%-31.0%0.000%
12/3/2024Rivernorth Capital Management LLC333,170$3.67M0.2%+46.1%0.000%
11/25/2024Sanctuary Advisors LLC16,403$173K0.0%+11.9%0.000%
11/15/2024Whitebox Advisors LLC82,517$908K0.0%+9.4%0.000%
11/15/2024Rivernorth Capital Management LLC333,170$3.67M0.2%+46.1%0.000%
11/14/2024Rockefeller Capital Management L.P.54,395$598K0.0%N/A0.000%
11/13/2024Horizon Kinetics Asset Management LLC18,237$201K0.0%N/A0.000%
11/9/2024Landscape Capital Management L.L.C.13,795$152K0.0%N/A0.000%
11/6/2024Oppenheimer & Co. Inc.23,910$263K0.0%-3.9%0.000%
11/4/2024Wolverine Asset Management LLC43,233$476K0.0%+43,133.0%0.000%
11/1/2024Fiera Capital Corp305,651$3.36M0.0%-2.6%0.000%
10/30/2024Focused Wealth Management Inc118,483$1.30M0.2%+0.8%0.000%
10/25/2024Pathway Financial Advisers LLC4,829$53K0.0%+1,000.0%0.000%


BNY Institutional Ownership - Frequently Asked Questions

Who are the largest shareholders of BNY shares?

During the previous two years, 56 institutional investors and hedge funds held shares of BlackRock New York Municipal Income Trust. The most heavily invested institutionals were Saba Capital Management L.P. ($22.24M), Rivernorth Capital Management LLC ($8.79M), Karpus Management Inc. ($5.90M), Guggenheim Capital LLC ($4.89M), Fiera Capital Corp ($2.64M), Bank of America Corp DE ($2.38M), and Mackay Shields LLC ($2.22M).Learn more on BlackRock New York Municipal Income Trust's institutional investors.

Which institutional investors have been buying BlackRock New York Municipal Income Trust's stock?

Of the 47 institutional investors that purchased BlackRock New York Municipal Income Trust's stock in the last 24 months, the following investors and hedge funds have bought the highest volume of shares: Rivernorth Capital Management LLC ($662.89K), Sit Investment Associates Inc. ($174.95K), Rockefeller Capital Management L.P. ($167.10K), Whitebox Advisors LLC ($155.47K), Guggenheim Capital LLC ($98.74K), Wolverine Asset Management LLC ($68.41K), and Mackay Shields LLC ($56.37K).

How much institutional buying is happening at BlackRock New York Municipal Income Trust?

Institutional investors have bought a total of 1,226,824 shares in the last 24 months. This purchase volume represents approximately $12.31M in transactions.

Which of BlackRock New York Municipal Income Trust's major shareholders have been selling company stock?

Of the 12 institutional investors that sold BlackRock New York Municipal Income Trust's stock in the last 24 months, the following investors and hedge funds have sold the highest volume of shares: AQR Arbitrage LLC ($41.08K), Fiera Capital Corp ($33.71K), UBS Group AG ($27.40K), Osaic Holdings Inc. ($17.44K), Modern Wealth Management LLC ($13.80K), Bridgewater Advisors Inc. ($8.68K), and Whitebox Advisors LLC ($7.36K).

How much institutional selling is happening at BlackRock New York Municipal Income Trust?

Institutional investors have sold a total of 166,896 shares in the last 24 months. This volume of shares sold represents approximately $1.68M in transactions.



This page (NYSE:BNY) was last updated on 5/7/2026 by MarketBeat.com Staff.
From Our Partners